Tracking 19574 objects as of 16-Feb-2019
HD Live streaming from Space Station
objects crossing your sky now

SESAT 2 (EXPRESS AM-22)

Track SESAT 2 (EXPRESS AM-22) now!
SESAT 2 (EXPRESS AM-22) is classified as:


NORAD ID: 28134
Int'l Code: 2003-060A
Perigee: 35,868.7 km
Apogee: 35,899.1 km
Inclination: 1.8 °
Period: 1,440.7 minutes
Semi major axis: 42254 km
RCS: 7.9432 m2 (large)
Launch date: December 28, 2003
Source: European Telecommunications Satellite Organization (EUTE)
Launch site: TYURATAM MISSILE AND SPACE COMPLEX (TTMTR)

12 of the 24 transponders are referred to as SESAT-2 (EUTELSAT); 26 C-band, 4 Ku-band.
aabbcc
Your satellite tracking list
Your tracking list is empty




NASA's NSSDC Master Catalog

Two Line Element Set (TLE):
1 28134U 03060A   19046.56890690  .00000020  00000-0  00000+0 0  9991
2 28134   1.7692  88.4725 0003596 341.6232 349.5668  0.99951038 55402
Source of the keplerian elements: AFSPC